Location: Sternwarte_Laufen
(47.9344°N, 12.9346°E)
Time: 11:53:20
(UTC+02:00)

ISS - Pass Details

Date: 16 July 2018
Orbit: 402 x 408 km, 51.6° (Epoch: 21 July)

Event Time Altitude Azimuth Distance (km) Brightness Sun altitude
Rises 04:06:04 0° 289° (WNW) 2,333 -0.2 -10.7°
Reaches altitude 10° 04:08:12 10° 295° (WNW) 1,472 -1.2 -10.5°
Maximum altitude 04:11:25 50° 12° (NNE) 526 -2.9 -10.1°
Drops below altitude 10° 04:14:39 10° 90° (E) 1,472 -0.4 -9.8°
Sets 04:16:47 0° 96° (E) 2,332 0.6 -9.5°
